sat.trackr.live / text

‹ back to catalog

STARLINK-11587 [DTC]

NORAD 63310 · 2025-057D

PAYLOAD ACTIVE UNKNOWN

§ Identity

Operator
Country
US
Launch date
2025-03-18
Launch site
AFETR
Launch vehicle
Mass (kg)
RCS (m²)

Purposes: comms

External: N2YO · Heavens-Above · Gunter

§ Orbital elements

Epoch: 2026-09-20T03:01:51.804192Z

Period
91.67 min
Inclination
42.9992°
Eccentricity
0.0002109
Mean motion
15.70907292 rev/d
Perigee alt
354.9 km
Apogee alt
357.7 km
Semi-major
6,734.4 km
B*
5.7215e-4
RAAN
172.8711°
Arg perigee
24.7367°
Mean anomaly
335.3602°
Rev number
8,775

§ Raw data

STARLINK-11587 [DTC]1 63310U 25057D   26263.12629403  .00073833  00000+0  57215-3 0  99942 63310  42.9992 172.8711 0002109  24.7367 335.3602 15.70907292 87759

JSON: /api/v1/satellites/63310 · /tle

For live sub-satellite position, see the globe view (requires WebGL).

§ Visibility from observer

Set your observer location to see the next 7 days of passes ≥ 10°. The values pass through the URL so the page stays shareable.

No JS? Fill the form by hand. The geolocation button needs JavaScript.